Time,TemperatureF,DewpointF,PressureIn,WindDirection,WindDirectionDegrees,WindSpeedMPH,WindSpeedGustMPH,Humidity,HourlyPrecipIn,Conditions,Clouds,dailyrainin,SolarRadiationWatts/m^2,SoftwareType,DateUTC
2013-10-28 00:02:00,34.0,20.0,-100.00,NNW,344,22.0,40.0,56,0.00,,,0.00,0.000000,,2013-10-28 06:02:00,
2013-10-28 00:43:00,33.0,18.0,-100.00,NNW,340,23.0,36.0,54,0.00,,,0.00,0.000000,,2013-10-28 06:43:00,
2013-10-28 00:52:00,33.0,18.0,-100.00,NNW,340,23.0,36.0,54,0.00,,,0.00,0.000000,,2013-10-28 06:52:00,
2013-10-28 01:01:00,33.0,18.0,-100.00,NNW,340,23.0,36.0,54,0.00,,,0.00,0.000000,,2013-10-28 07:01:00,
2013-10-28 01:42:00,34.0,18.0,-100.00,NNW,336,23.0,37.0,52,0.00,,,0.00,0.000000,,2013-10-28 07:42:00,
2013-10-28 01:52:00,34.0,18.0,-100.00,NNW,336,23.0,37.0,52,0.00,,,0.00,0.000000,,2013-10-28 07:52:00,
2013-10-28 02:02:00,34.0,18.0,-100.00,NNW,336,23.0,37.0,52,0.00,,,0.00,0.000000,,2013-10-28 08:02:00,
2013-10-28 02:22:00,33.0,17.0,-100.00,NNW,341,22.0,37.0,52,0.00,,,0.00,0.000000,,2013-10-28 08:22:00,
2013-10-28 02:32:00,33.0,17.0,-100.00,NNW,341,22.0,37.0,52,0.00,,,0.00,0.000000,,2013-10-28 08:32:00,
2013-10-28 02:42:00,33.0,17.0,-100.00,NNW,341,22.0,37.0,52,0.00,,,0.00,0.000000,,2013-10-28 08:42:00,
2013-10-28 02:52:00,33.0,17.0,-100.00,NNW,341,22.0,37.0,52,0.00,,,0.00,0.000000,,2013-10-28 08:52:00,
2013-10-28 03:02:00,33.0,17.0,-100.00,NNW,341,22.0,37.0,52,0.00,,,0.00,0.000000,,2013-10-28 09:02:00,
2013-10-28 03:03:00,32.0,18.0,-100.00,NNW,338,22.0,37.0,55,0.00,,,-99.99,0.000000,,2013-10-28 09:03:00,
2013-10-28 03:43:00,32.0,18.0,-100.00,NNW,338,22.0,37.0,55,0.00,,,-99.99,0.000000,,2013-10-28 09:43:00,
2013-10-28 03:53:00,32.0,18.0,-100.00,NNW,338,22.0,37.0,55,0.00,,,-99.99,0.000000,,2013-10-28 09:53:00,
2013-10-28 04:03:00,31.0,16.0,-100.00,North,353,21.0,36.0,53,0.00,,,0.00,0.000000,,2013-10-28 10:03:00,
2013-10-28 04:53:00,31.0,16.0,-100.00,North,353,21.0,36.0,53,0.00,,,0.00,0.000000,,2013-10-28 10:53:00,
2013-10-28 06:42:00,29.0,14.0,-100.00,North,349,18.0,36.0,54,0.00,,,0.00,0.000000,,2013-10-28 12:42:00,
2013-10-28 06:52:00,29.0,14.0,-100.00,North,349,18.0,36.0,54,0.00,,,0.00,0.000000,,2013-10-28 12:52:00,
2013-10-28 07:01:00,29.0,14.0,-100.00,North,349,18.0,36.0,54,0.00,,,0.00,0.000000,,2013-10-28 13:01:00,
2013-10-28 07:42:00,28.0,14.0,-100.00,North,349,18.0,31.0,55,0.00,,,0.00,0.000000,,2013-10-28 13:42:00,
2013-10-28 07:52:00,28.0,14.0,-100.00,North,349,18.0,31.0,55,0.00,,,0.00,0.000000,,2013-10-28 13:52:00,
2013-10-28 08:02:00,28.0,14.0,-100.00,North,349,18.0,31.0,55,0.00,,,0.00,0.000000,,2013-10-28 14:02:00,
2013-10-28 08:42:00,28.0,14.0,-100.00,NNW,343,18.0,29.0,56,0.00,,,0.00,0.000000,,2013-10-28 14:42:00,
2013-10-28 08:52:00,28.0,14.0,-100.00,NNW,343,18.0,29.0,56,0.00,,,0.00,0.000000,,2013-10-28 14:52:00,
2013-10-28 09:02:00,28.0,14.0,-100.00,NNW,343,18.0,29.0,56,0.00,,,0.00,0.000000,,2013-10-28 15:02:00,
2013-10-28 09:03:00,27.0,17.0,-100.00,North,350,16.0,30.0,66,0.00,,,0.00,4.000000,,2013-10-28 15:03:00,
2013-10-28 09:43:00,27.0,17.0,-100.00,North,350,16.0,30.0,66,0.00,,,0.00,4.000000,,2013-10-28 15:43:00,
2013-10-28 09:53:00,27.0,17.0,-100.00,North,350,16.0,30.0,66,0.00,,,0.00,4.000000,,2013-10-28 15:53:00,
2013-10-28 10:43:00,25.0,19.0,-100.00,NNW,343,18.0,27.0,77,0.00,,,0.00,28.000000,,2013-10-28 16:43:00,
2013-10-28 10:53:00,25.0,19.0,-100.00,NNW,343,18.0,27.0,77,0.00,,,0.00,28.000000,,2013-10-28 16:53:00,
2013-10-28 11:02:00,25.0,19.0,-100.00,NNW,343,18.0,27.0,77,0.00,,,0.00,28.000000,,2013-10-28 17:02:00,
2013-10-28 11:42:00,26.0,16.0,-100.00,North,356,17.0,26.0,66,0.00,,,0.00,119.000000,,2013-10-28 17:42:00,
2013-10-28 11:52:00,26.0,16.0,-100.00,North,356,17.0,26.0,66,0.00,,,0.00,119.000000,,2013-10-28 17:52:00,
2013-10-28 12:02:00,26.0,16.0,-100.00,North,356,17.0,26.0,66,0.00,,,0.00,119.000000,,2013-10-28 18:02:00,
2013-10-28 12:42:00,27.0,15.0,-100.00,North,352,19.0,26.0,61,0.00,,,0.00,176.000000,,2013-10-28 18:42:00,
2013-10-28 12:52:00,27.0,15.0,-100.00,North,352,19.0,26.0,61,0.00,,,0.00,176.000000,,2013-10-28 18:52:00,
2013-10-28 13:01:00,27.0,15.0,-100.00,North,352,19.0,26.0,61,0.00,,,0.00,176.000000,,2013-10-28 19:01:00,
2013-10-28 13:42:00,28.0,15.0,-100.00,North,352,18.0,28.0,58,0.00,,,0.00,263.000000,,2013-10-28 19:42:00,
2013-10-28 13:52:00,28.0,15.0,-100.00,North,352,18.0,28.0,58,0.00,,,0.00,263.000000,,2013-10-28 19:52:00,
2013-10-28 14:02:00,28.0,15.0,-100.00,North,352,18.0,28.0,58,0.00,,,0.00,263.000000,,2013-10-28 20:02:00,
2013-10-28 14:22:00,28.0,15.0,-100.00,North,0,21.0,29.0,57,0.00,,,0.00,369.000000,,2013-10-28 20:22:00,
2013-10-28 14:32:00,28.0,15.0,-100.00,North,0,21.0,29.0,57,0.00,,,0.00,369.000000,,2013-10-28 20:32:00,
2013-10-28 14:42:00,28.0,15.0,-100.00,North,0,21.0,29.0,57,0.00,,,0.00,369.000000,,2013-10-28 20:42:00,
2013-10-28 14:52:00,28.0,15.0,-100.00,North,0,21.0,29.0,57,0.00,,,0.00,369.000000,,2013-10-28 20:52:00,
2013-10-28 15:02:00,28.0,15.0,-100.00,North,0,21.0,29.0,57,0.00,,,0.00,369.000000,,2013-10-28 21:02:00,
2013-10-28 15:03:00,28.0,14.0,-100.00,North,351,20.0,29.0,56,0.00,,,0.00,355.000000,,2013-10-28 21:03:00,
2013-10-28 15:22:00,28.0,14.0,-100.00,North,351,20.0,29.0,56,0.00,,,0.00,355.000000,,2013-10-28 21:22:00,
2013-10-28 15:34:00,28.0,14.0,-100.00,North,351,20.0,29.0,56,0.00,,,0.00,355.000000,,2013-10-28 21:34:00,
2013-10-28 15:43:00,28.0,14.0,-100.00,North,351,20.0,29.0,56,0.00,,,0.00,355.000000,,2013-10-28 21:43:00,
2013-10-28 15:54:00,28.0,14.0,-100.00,North,351,20.0,29.0,56,0.00,,,0.00,355.000000,,2013-10-28 21:54:00,
2013-10-28 16:43:00,28.0,14.0,-100.00,North,349,17.0,32.0,56,0.00,,,0.00,189.000000,,2013-10-28 22:43:00,
2013-10-28 16:53:00,28.0,14.0,-100.00,North,349,17.0,32.0,56,0.00,,,0.00,189.000000,,2013-10-28 22:53:00,
2013-10-28 17:02:00,28.0,14.0,-100.00,North,349,17.0,32.0,56,0.00,,,0.00,189.000000,,2013-10-28 23:02:00,
2013-10-28 17:42:00,27.0,13.0,-100.00,North,357,12.0,27.0,56,0.00,,,0.00,69.000000,,2013-10-28 23:42:00,
2013-10-28 17:52:00,27.0,13.0,-100.00,North,357,12.0,27.0,56,0.00,,,0.00,69.000000,,2013-10-28 23:52:00,
2013-10-28 18:01:00,27.0,13.0,-100.00,North,357,12.0,27.0,56,0.00,,,0.00,69.000000,,2013-10-29 00:01:00,
2013-10-28 18:22:00,26.0,14.0,-100.00,North,2,13.0,21.0,59,0.00,,,0.00,22.000000,,2013-10-29 00:22:00,
2013-10-28 18:32:00,26.0,14.0,-100.00,North,2,13.0,21.0,59,0.00,,,0.00,22.000000,,2013-10-29 00:32:00,
2013-10-28 18:42:00,26.0,14.0,-100.00,North,2,13.0,21.0,59,0.00,,,0.00,22.000000,,2013-10-29 00:42:00,
2013-10-28 18:52:00,26.0,14.0,-100.00,North,2,13.0,21.0,59,0.00,,,0.00,22.000000,,2013-10-29 00:52:00,
2013-10-28 19:01:00,26.0,14.0,-100.00,North,2,13.0,21.0,59,0.00,,,0.00,22.000000,,2013-10-29 01:01:00,
2013-10-28 20:03:00,25.0,13.0,-100.00,ENE,70,9.0,21.0,60,-99.99,,,0.00,0.000000,,2013-10-29 02:03:00,
2013-10-28 20:21:00,25.0,13.0,-100.00,ENE,70,9.0,21.0,60,-99.99,,,0.00,0.000000,,2013-10-29 02:21:00,
2013-10-28 20:34:00,25.0,13.0,-100.00,ENE,70,9.0,21.0,60,-99.99,,,0.00,0.000000,,2013-10-29 02:34:00,
2013-10-28 20:44:00,25.0,13.0,-100.00,ENE,70,9.0,21.0,60,-99.99,,,0.00,0.000000,,2013-10-29 02:44:00,
2013-10-28 20:54:00,25.0,13.0,-100.00,ENE,70,9.0,21.0,60,-99.99,,,0.00,0.000000,,2013-10-29 02:54:00,
2013-10-28 21:03:00,25.0,13.0,-100.00,North,2,9.0,16.0,61,0.00,,,0.00,0.000000,,2013-10-29 03:03:00,
2013-10-28 21:40:00,-999.0,-99.9,-100.00,North,2,9.0,16.0,61,0.00,,,0.00,0.000000,,2013-10-29 03:40:00,
2013-10-28 21:48:00,25.0,13.0,-100.00,North,2,9.0,16.0,61,0.00,,,0.00,0.000000,,2013-10-29 03:48:00,
2013-10-28 21:55:00,25.0,13.0,-100.00,North,2,9.0,16.0,61,0.00,,,0.00,0.000000,,2013-10-29 03:55:00,
2013-10-28 22:03:00,25.0,14.0,-100.00,North,7,9.0,19.0,62,0.00,,,0.00,0.000000,,2013-10-29 04:03:00,
2013-10-28 22:44:00,25.0,14.0,-100.00,North,7,9.0,19.0,62,0.00,,,0.00,0.000000,,2013-10-29 04:44:00,
2013-10-28 22:57:00,25.0,14.0,-100.00,North,7,9.0,19.0,62,0.00,,,0.00,0.000000,,2013-10-29 04:57:00,
2013-10-28 23:03:00,24.0,14.0,-100.00,North,359,7.0,14.0,64,0.00,,,0.00,0.000000,,2013-10-29 05:03:00,
2013-10-28 23:45:00,24.0,14.0,-100.00,North,359,7.0,14.0,64,0.00,,,0.00,0.000000,,2013-10-29 05:45:00,
2013-10-28 23:52:00,24.0,14.0,-100.00,North,359,7.0,14.0,64,0.00,,,0.00,0.000000,,2013-10-29 05:52:00,